Location: Unspecified
(0.0000°N, 0.0000°E)
Time: 09:48:12
(UTC+00:00)

SRMSAT - Pass Details

Date: 26 March 2019
Orbit: 849 x 865 km, 20.0° (Epoch: 26 April)

Event Time Altitude Azimuth Distance (km) Brightness Sun altitude
Rises 18:56:20 0° 224° (SW) 3,415 ? -12.6°
Reaches altitude 10° 19:00:53 10° 192° (SSW) 2,473 ? -13.8°
Maximum altitude 19:02:55 12° 172° (S) 2,350 ? -14.3°
Drops below altitude 10° 19:04:57 10° 152° (SSE) 2,469 ? -14.8°
Enters shadow 19:06:07 - 142° (SE) 2,638 ? -15.1°
